CLUSTER II-FM8 (TANGO) (26464 NORAD) Tracking and Keplerian Element Data

This shows tracking and keplerian element data for the satellite.

Feedback or suggestion? Click here.




ElementValue
Catalog26464
NameCLUSTER II-FM8 (TANGO)
Epoch Orbit5597
Epoch Day17.6786169
Epoch Year2019
RAAN337.7391
Inclination131.1006
Eccentricity0.4103823
Argument of Perigee168.3845
Mean Anonmoly205.2326
Mean Motion0.44216932
Decay Rate1.47E-06
L11 26464U 00045B 19017.67861690 .00000147 00000-0 00000+0 0 9993
L22 26464 131.1006 337.7391 4103823 168.3845 205.2326 0.44216932 55972

Live tracking and technical data element details for CLUSTER II-FM8 (TANGO) (NORAD 26464). CLUSTER II-FM8 (TANGO) can be tracked NOW for your location showing map with azimuth and elevation plus other details from your city location.

Track the satellite on the map from your city or location and see movement details for azimuth, elevation, latitude, longitude, range, height, and movement on the map or in text.







IsCatalogInMostPopularTable: catalog: 26464, numindb: 94
Update: records affected: 1



GetName: 26464 CLUSTER II-FM8 (TANGO)

Hit Count: updated at: Mon, 21 Jan 2019 17:30:59 GMT